Home > Weather > Bucharest > Past weeks

Flag for Romania Weather for the Past 2 Weeks in Bucharest, Romania

Now
39 °F

Drizzle. Fog.


Feels Like: 32 °F
Forecast: 39 / 57 °F
Wind: 10 mph from Northeast

Location: Bucharest / Imh

Current Time: Feb 13, 2016 at 9:08:57 AM

Latest Report: Feb 13, 2016 at 8:30 AM


Visibility: 0 mi

Pressure: 29.71 "Hg

Humidity: 93%

Dew point: 37 °F

Location of BucharestLocation

Historic Weather in Bucharest — Graph

°F

Bucharest Temperature Yesterday

Maximum temperature yesterday: 50 °F (at 2:00 PM)
Minimum temperature yesterday: 36 °F (at 11:00 PM)
Average temperature yesterday: 43 °F

High & Low Weather Summary for the Past Weeks

 TemperatureHumidityPressure
High63 °F (Feb 3, 3:30 PM)100% (Jan 29, 8:00 AM)30.45 "Hg (Jan 29, 8:00 AM)
Low23 °F (Feb 7, 7:00 AM)42% (Feb 7, 1:00 PM)29.45 "Hg (Feb 10, 8:00 PM)
Average40 °F85%30.07 "Hg
* Reported Jan 29 8:00 AM — Feb 13 8:00 AM, Bucharest, Weather by CustomWeather, © 2016

Note: Actual official high and low records may vary slightly from our data, if they occured in-between our weather recording intervals... More about our weather records

Advertising

Bucharest Weather History for the Previous 24 Hours

 ConditionsComfort  
Time TempWeatherWind HumidityBarometerVisibility
8:00 AM
Sat, Feb 13
39 °FDrizzle. Fog.9 mph93%29.71 "Hg1 mi
7:30 AM39 °FDrizzle. Fog.9 mph93%29.71 "Hg1 mi
7:00 AM39 °FFog.9 mph93%29.71 "Hg1 mi
6:30 AM37 °FFog.12 mph100%29.71 "Hg1 mi
6:00 AM37 °FLight rain. Fog.10 mph100%29.74 "Hg1 mi
5:30 AM39 °FLight rain. Fog.10 mph93%29.74 "Hg3 mi
5:00 AM37 °FPassing clouds.10 mph100%29.74 "Hg4 mi
4:30 AM37 °FPassing clouds.9 mph100%29.77 "Hg5 mi
4:00 AM37 °FLow clouds.9 mph93%29.77 "HgN/A
3:30 AM37 °FPassing clouds.8 mph100%29.77 "HgN/A
2:30 AM37 °FPassing clouds.7 mph100%29.80 "HgN/A
2:00 AM37 °FClear.7 mph93%29.80 "Hg10 mi
1:30 AM37 °FPassing clouds.7 mph93%29.83 "HgN/A
1:00 AM37 °FClear.7 mph93%29.83 "Hg10 mi
12:00 AM36 °FClear.6 mph93%29.86 "Hg10 mi
11:30 PM
Fri, Feb 12
36 °FClear.5 mph93%29.89 "Hg10 mi
11:00 PM36 °FClear.6 mph93%29.89 "Hg10 mi
10:30 PM37 °FClear.5 mph93%29.89 "Hg10 mi
10:00 PM37 °FClear.3 mph93%29.89 "Hg10 mi
9:30 PM37 °FClear.6 mph93%29.89 "Hg10 mi
9:00 PM41 °FPassing clouds.3 mph87%29.92 "HgN/A
8:30 PM43 °FClear.6 mph81%29.92 "Hg10 mi
8:00 PM43 °FClear.6 mph81%29.92 "Hg10 mi
7:30 PM45 °FPassing clouds.5 mph76%29.92 "HgN/A
7:00 PM41 °FClear.5 mph81%29.92 "Hg10 mi
6:30 PM43 °FClear.3 mph81%29.95 "Hg10 mi
6:00 PM45 °FClear.3 mph71%29.92 "Hg10 mi
5:30 PM46 °FPassing clouds.5 mph71%29.92 "HgN/A
5:00 PM46 °FPartly sunny.5 mph71%29.92 "HgN/A
4:30 PM48 °FPartly sunny.2 mph62%29.92 "HgN/A
4:00 PM48 °FPartly sunny.5 mph62%29.92 "HgN/A
3:30 PM48 °FPartly sunny.5 mph62%29.92 "HgN/A
3:00 PM50 °FScattered clouds.1 mph58%29.92 "HgN/A
2:30 PM48 °FPassing clouds.5 mph62%29.92 "HgN/A
2:00 PM50 °FScattered clouds.3 mph58%29.92 "HgN/A
1:30 PM48 °FPassing clouds.5 mph58%29.92 "HgN/A
1:00 PM48 °FPartly sunny.6 mph62%29.95 "HgN/A
12:30 PM46 °FPassing clouds.5 mph71%29.95 "HgN/A
12:00 PM46 °FSunny.6 mph71%29.95 "Hg10 mi
11:30 AM45 °FPartly sunny.8 mph76%29.98 "HgN/A
11:00 AM45 °FPassing clouds.5 mph81%29.98 "HgN/A
10:30 AM45 °FSunny.5 mph81%29.95 "Hg10 mi
10:00 AM43 °FPartly sunny.3 mph81%29.95 "HgN/A
9:30 AM43 °FLight rain. Overcast.5 mph81%29.95 "HgN/A
9:00 AM41 °FLight rain. Overcast.5 mph87%29.95 "HgN/A
Weather by CustomWeather, © 2016

See weather overviewHow to use our weather pages